This is the latest recevied weather packets stored in our database for station/object IW8RUI-5. If no packets are shown the sender has not sent any weather packets the latest 1 day(s).
| Time | Temp. | Humidity | Pressure | Rain* | Wind** | Luminosity | Snow |
|---|---|---|---|---|---|---|---|
| 1778087367 | 14.44° C | 14% | 1009 hPa | 0 mm | - | - | - |
| 1778087067 | 15° C | 14% | 1009 hPa | 0 mm | - | - | - |
| 1778086467 | 15.56° C | 14% | 1009 hPa | 0 mm | - | - | - |
| 1778086167 | 15.56° C | 16% | 1009 hPa | 0 mm | - | - | - |
| 1778084967 | 15.56° C | 16% | 1009 hPa | 0 mm | - | - | - |
| 1778084367 | 15.56° C | 11% | 1009 hPa | 0 mm | - | - | - |
| 1778083467 | 15.56° C | 10% | 1010 hPa | 0 mm | - | - | - |
| 1778083167 | 15.56° C | 10% | 1010 hPa | 0 mm | - | - | - |
| 1778082867 | 15.56° C | 10% | 1010 hPa | 0 mm | - | - | - |
| 1778082567 | 15.56° C | 10% | 1010 hPa | 0 mm | - | - | - |
| 1778082267 | 15.56° C | 16% | 1010 hPa | 0 mm | - | - | - |
| 1778081967 | 15.56° C | 10% | 1010 hPa | 0 mm | - | - | - |
| 1778081667 | 15° C | 10% | 1010 hPa | 0 mm | - | - | - |
| 1778081367 | 15° C | 10% | 1010 hPa | 0 mm | - | - | - |
| 1778081067 | 14.44° C | 10% | 1010 hPa | 0 mm | - | - | - |
| 1778080767 | 14.44° C | 10% | 1010 hPa | 0 mm | - | - | - |
| 1778080467 | 13.89° C | 10% | 1010 hPa | 0 mm | - | - | - |
| 1778080167 | 14.44° C | 10% | 1010 hPa | 0 mm | - | - | - |
| 1778079867 | 15° C | 10% | 1010 hPa | 0 mm | - | - | - |
| 1778079567 | 15.56° C | 10% | 1009 hPa | 0 mm | - | - | - |
| 1778079267 | 17.22° C | 10% | 1009 hPa | 0 mm | - | - | - |
| 1778078967 | 18.33° C | 10% | 1009 hPa | 0 mm | - | - | - |
| 1778078367 | 17.78° C | 10% | 1009 hPa | 0 mm | - | - | - |
| 1778078067 | 17.78° C | 10% | 1009 hPa | 0 mm | - | - | - |
| 1778077467 | 17.78° C | 10% | 1009 hPa | 0 mm | - | - | - |
* Rain latest hour (hover to see other rain measurements)
** Current wind speed in m/s (hover to see current wind gust speed)